This is the latest recevied weather packets stored in our database for station/object N8WEL. If no packets are shown the sender has not sent any weather packets the latest 10 day(s).
| Time | Temp. | Humidity | Pressure | Rain* | Wind** | Luminosity | Snow |
|---|---|---|---|---|---|---|---|
| 1777664826 | 8.33° C | 77% | 1013.1 hPa | 0 mm | - | - | - |
| 1777664825 | 7.78° C | 77% | 1013 hPa | 0 mm | - | - | - |
| 1777663253 | 7.78° C | 79% | 1013.1 hPa | 0 mm | - | - | - |
| 1777663253 | 7.78° C | 77% | 1012.9 hPa | 0 mm | - | - | - |
| 1777662396 | 7.22° C | 81% | 1013 hPa | 0 mm | - | - | - |
| 1777662118 | 7.22° C | 81% | 1012.9 hPa | 0 mm | - | - | - |
| 1777661653 | 7.22° C | 82% | 1012.7 hPa | 0 mm | - | - | - |
| 1777661652 | 7.22° C | 81% | 1012.7 hPa | 0 mm | - | - | - |
| 1777661008 | 7.78° C | 81% | 1012.5 hPa | 0 mm | - | - | - |
| 1777660749 | 7.22° C | 83% | 1012.5 hPa | 0 mm | - | - | - |
| 1777659937 | 7.22° C | 84% | 1013.5 hPa | 0 mm | - | - | - |
| 1777659585 | 7.22° C | 84% | 1013.4 hPa | 0 mm | - | - | - |
| 1777659303 | 7.22° C | 84% | 1013.2 hPa | 0 mm | - | - | - |
| 1777658987 | 7.22° C | 83% | 1013.2 hPa | 0 mm | - | - | - |
| 1777658385 | 7.78° C | 83% | 1013 hPa | 0 mm | - | - | - |
| 1777658102 | 7.78° C | 84% | 1012.8 hPa | 0 mm | - | - | - |
| 1777657792 | 7.78° C | 85% | 1012.7 hPa | 0 mm | - | - | - |
| 1777657489 | 8.33° C | 85% | 1012.7 hPa | 0 mm | - | - | - |
| 1777657131 | 8.33° C | 89% | 1012.5 hPa | 0 mm | - | - | - |
| 1777656644 | 8.33° C | 93% | 1012.3 hPa | 0 mm | - | - | - |
| 1777656336 | 7.78° C | 94% | 1012.2 hPa | 0 mm | - | - | - |
| 1777656273 | 7.78° C | 93% | 1012.2 hPa | 0 mm | - | - | - |
| 1777655385 | 8.33° C | 93% | 1012 hPa | 0 mm | - | - | - |
| 1777655085 | 8.89° C | 94% | 1011.8 hPa | 0 mm | - | - | - |
| 1777654785 | 8.89° C | 94% | 1011.8 hPa | 0 mm | - | - | - |
* Rain latest hour (hover to see other rain measurements)
** Current wind speed in m/s (hover to see current wind gust speed)